Location: ???? ?????????
(44.3677°N, 135.2344°E)
Time: 15:47:25
(UTC+00:00)

ISS - Visible Passes

Search period start: 17 July 2025 00:00
Search period end: 27 July 2025 00:00
Orbit: 415 x 418 km, 51.6° (Epoch: 17 July)

Date Brightness Start Highest point End Pass type
(mag) Time Alt. Az. Time Alt. Az. Time Alt. Az.
17 Jul -1.5 12:14:33 10° NW 12:17:21 24° N 12:20:09 10° ENE visible
17 Jul -3.0 13:51:16 10° NW 13:54:08 52° N 13:54:08 52° N visible
18 Jul -1.5 11:26:07 10° NW 11:28:51 23° N 11:31:35 10° ENE visible
18 Jul -2.7 13:02:59 10° NW 13:06:12 41° NNE 13:07:15 30° ENE visible
18 Jul -0.9 14:39:49 10° WNW 14:40:08 12° WNW 14:40:08 12° WNW visible
19 Jul -2.2 12:14:42 10° NW 12:17:46 31° NNE 12:20:25 12° E visible
19 Jul -2.2 13:51:22 10° WNW 13:53:18 31° WNW 13:53:18 31° WNW visible
20 Jul -1.9 11:26:22 10° NW 11:29:16 26° NNE 11:32:10 10° ENE visible
20 Jul -3.9 13:03:01 10° WNW 13:06:22 84° NNE 13:06:29 81° E visible
21 Jul -3.3 12:14:40 10° NW 12:17:59 55° NNE 12:19:43 25° E visible
21 Jul -1.2 13:51:49 10° W 13:52:36 15° W 13:52:36 15° W visible
22 Jul -2.7 11:26:22 10° NW 11:29:33 39° NNE 11:32:44 10° E visible
22 Jul -2.8 13:03:09 10° WNW 13:05:51 36° WSW 13:05:51 36° WSW visible
23 Jul -3.7 12:14:40 10° WNW 12:18:00 64° SW 12:19:09 36° SSE visible
24 Jul -3.7 11:26:16 10° WNW 11:29:38 80° NNE 11:32:29 14° ESE visible
24 Jul -1.4 13:03:57 10° W 13:05:22 15° WSW 13:05:22 15° WSW visible
25 Jul -2.2 12:14:58 10° W 12:17:46 25° SW 12:18:45 21° SSW visible
26 Jul -2.9 11:26:19 10° WNW 11:29:29 41° SW 11:32:10 13° SSE visible
